Zurück zum Katalog

STARLINK-30136

AktivKommunikationVLEO
NORAD 56844·PAYLOAD·🇺🇸 United States

Gestartet Jun 4, 2023 von Cape Canaveral Space Force Station

Loading…

Nächste Überflüge (nächste 24 Stunden)

TLE

AktuellSource: CelesTrak SupGP

Epoche: Sep 15, 2026, 02:01 UTC

1 56844C 23079X   26258.08451389  .00058150  00000+0  21061-2 0  2587
2 56844  43.0002 117.3916 0001263 262.5028  81.5544 15.27551679    19

Verfolge STARLINK-30136 in Echtzeit mit AllMySat

Download on the App Store